En Direct

LFST 280400Z AUTO 00000KT 0500 0350 R23/0750N R05/0400N FG VV/// 04/03 Q1021 NOSIG


TAF LFST 271700Z 2718/2818 VRB03KT CAVOK BECMG 2718/2721 3000 BR TEMPO 2721/2811 0500 FG VV/// BECMG 2811/2813 CAVOK

Nos Avions

7 avions disponibles et entretenus par un atelier agréé, permettant tous types de vols (formation, promenade, voyage…)

l'école de pilotage

PPL, LAPL, Vol de nuit, SEP… Toutes ces formations sont dispensées par nos instructeurs bénévoles.
Formation Théorique Mermoz via la FFA

Notre Plateforme

Nous sommes basés à l’aéroport de Strasbourg-Entzheim (LFST) en plein coeur de l’Alsace qui permet de voyager rapidement outre Rhin, mais également de profiter des paysages variés

Nos réseaux

Suivez-nous sur les réseaux sociaux